�������l�o���
Date,Time,MP-1(��Sv/h),MP-2(��Sv/h),MP-3(��Sv/h),MP-4(��Sv/h),MP-5(��Sv/h),MP-6(��Sv/h),MP-7(��Sv/h),MP-8(��Sv/h),����,����(m/s),���J
2019/05/14,00:00,0.771,1.136,0.780,1.432,1.052,0.439,0.772,0.731,��,3.2,��
2019/05/14,00:10,0.773,1.134,0.778,1.432,1.050,0.439,0.773,0.730,��,1.1,��
2019/05/14,00:20,0.773,1.136,0.780,1.430,1.051,0.439,0.774,0.730,��쓌,1.1,��
2019/05/14,00:30,0.772,1.132,0.780,1.434,1.049,0.440,0.772,0.731,��쓌,1.2,��
2019/05/14,00:40,0.772,1.134,0.782,1.432,1.052,0.438,0.772,0.731,��쓌,1.9,��
2019/05/14,00:50,0.774,1.135,0.779,1.431,1.049,0.440,0.773,0.732,��,2.0,��
2019/05/14,01:00,0.775,1.136,0.782,1.430,1.052,0.440,0.775,0.732,��,2.5,��
2019/05/14,01:10,0.773,1.134,0.778,1.431,1.053,0.437,0.774,0.732,��쓌,2.0,��
2019/05/14,01:20,0.773,1.134,0.777,1.433,1.051,0.439,0.774,0.730,��,2.3,��
2019/05/14,01:30,0.774,1.136,0.780,1.430,1.051,0.440,0.773,0.732,��,1.4,��
2019/05/14,01:40,0.773,1.137,0.779,1.432,1.053,0.437,0.775,0.732,��쐼,1.2,��
2019/05/14,01:50,0.773,1.138,0.779,1.432,1.053,0.439,0.774,0.731,��,1.5,��
2019/05/14,02:00,0.770,1.136,0.777,1.432,1.053,0.439,0.772,0.731,�쓌,1.2,��
2019/05/14,02:10,0.772,1.135,0.779,1.432,1.050,0.439,0.773,0.731,��쓌,1.2,��
2019/05/14,02:20,0.774,1.136,0.779,1.430,1.051,0.439,0.773,0.732,��쐼,0.6,��
2019/05/14,02:30,0.774,1.137,0.779,1.432,1.051,0.438,0.772,0.732,��쓌,1.2,��
2019/05/14,02:40,0.775,1.134,0.780,1.433,1.051,0.439,0.774,0.732,��쓌,1.5,��
2019/05/14,02:50,0.774,1.134,0.780,1.434,1.052,0.439,0.773,0.733,�쓌,1.2,��
2019/05/14,03:00,0.773,1.138,0.779,1.434,1.052,0.440,0.774,0.730,��쓌,1.4,��
2019/05/14,03:10,0.774,1.135,0.780,1.430,1.053,0.439,0.773,0.732,��,0.9,��
2019/05/14,03:20,0.774,1.137,0.779,1.433,1.052,0.439,0.772,0.732,�k�k��,1.5,��
2019/05/14,03:30,0.774,1.135,0.780,1.431,1.054,0.439,0.772,0.732,�k,1.5,��
2019/05/14,03:40,0.776,1.135,0.779,1.432,1.054,0.439,0.773,0.731,�k,2.0,��
2019/05/14,03:50,0.774,1.137,0.779,1.430,1.053,0.439,0.773,0.732,�k,1.9,��
2019/05/14,04:00,0.774,1.136,0.779,1.432,1.054,0.439,0.773,0.732,�k,2.0,��
2019/05/14,04:10,0.772,1.137,0.781,1.430,1.052,0.439,0.774,0.732,�k�k��,1.1,��
2019/05/14,04:20,0.774,1.137,0.779,1.429,1.048,0.440,0.773,0.731,�k,2.3,��
2019/05/14,04:30,0.774,1.136,0.779,1.431,1.052,0.439,0.772,0.734,�k,3.0,��
2019/05/14,04:40,0.773,1.135,0.780,1.433,1.051,0.439,0.774,0.732,�k,3.4,��
2019/05/14,04:50,0.772,1.133,0.778,1.431,1.052,0.440,0.773,0.730,�k,3.2,��
2019/05/14,05:00,0.773,1.135,0.780,1.434,1.052,0.439,0.773,0.732,�k,3.1,��
2019/05/14,05:10,0.773,1.135,0.780,1.433,1.051,0.439,0.773,0.733,�k�k��,3.5,��
2019/05/14,05:20,0.774,1.134,0.778,1.431,1.052,0.439,0.772,0.732,�k�k��,3.9,��
2019/05/14,05:30,0.774,1.137,0.781,1.434,1.053,0.438,0.773,0.732,�k�k��,3.2,��
2019/05/14,05:40,0.772,1.136,0.781,1.432,1.052,0.438,0.772,0.732,�k�k��,3.3,��
2019/05/14,05:50,0.772,1.137,0.778,1.433,1.050,0.438,0.772,0.731,�k�k��,3.1,��
2019/05/14,06:00,0.774,1.136,0.779,1.431,1.049,0.440,0.773,0.731,�k�k��,2.3,��
2019/05/14,06:10,0.773,1.136,0.780,1.434,1.049,0.437,0.773,0.732,�k,2.0,��
2019/05/14,06:20,0.773,1.136,0.783,1.433,1.051,0.438,0.773,0.733,�k,1.5,��
2019/05/14,06:30,0.772,1.136,0.781,1.431,1.051,0.438,0.771,0.730,�k,1.9,��
2019/05/14,06:40,0.773,1.134,0.781,1.429,1.051,0.437,0.772,0.733,�k,0.9,��
2019/05/14,06:50,0.772,1.136,0.778,1.432,1.052,0.440,0.772,0.733,�k�k��,1.1,��
2019/05/14,07:00,0.775,1.133,0.779,1.431,1.052,0.439,0.772,0.732,�k�k��,1.4,��
2019/05/14,07:10,0.774,1.135,0.778,1.432,1.051,0.439,0.772,0.731,�k�k��,0.8,��
2019/05/14,07:20,0.772,1.134,0.780,1.434,1.053,0.439,0.771,0.732,-,CALM,��
2019/05/14,07:30,0.773,1.135,0.779,1.431,1.051,0.438,0.772,0.732,�k�k��,0.8,��
2019/05/14,07:40,0.774,1.135,0.778,1.431,1.051,0.439,0.772,0.728,�k�k��,1.1,��
2019/05/14,07:50,0.774,1.136,0.781,1.432,1.052,0.438,0.773,0.730,�k��,1.2,��
2019/05/14,08:00,0.771,1.131,0.779,1.431,1.050,0.437,0.772,0.730,�k�k��,1.1,��
2019/05/14,08:10,0.773,1.135,0.778,1.434,1.049,0.438,0.770,0.730,�k��,0.9,��
2019/05/14,08:20,0.771,1.129,0.779,1.431,1.050,0.437,0.772,0.731,�k��,0.8,��
2019/05/14,08:30,0.775,1.131,0.780,1.431,1.050,0.437,0.772,0.728,���k��,1.4,��
2019/05/14,08:40,0.771,1.129,0.781,1.432,1.051,0.438,0.771,0.728,��,1.2,��
2019/05/14,08:50,0.772,1.134,0.778,1.433,1.051,0.436,0.771,0.729,��,1.2,��
2019/05/14,09:00,0.771,1.129,0.778,1.431,1.050,0.437,0.772,0.730,���쓌,1.2,��
2019/05/14,09:10,0.769,1.127,0.779,1.430,1.049,0.435,0.773,0.731,���쓌,1.4,��
2019/05/14,09:20,0.770,1.125,0.778,1.431,1.051,0.437,0.772,0.731,��,1.2,��
2019/05/14,09:30,0.772,1.128,0.776,1.432,1.049,0.436,0.771,0.729,���k��,1.5,��
2019/05/14,09:40,0.772,1.128,0.778,1.433,1.048,0.437,0.773,0.730,��,1.7,��
2019/05/14,09:50,0.772,1.126,0.778,1.430,1.047,0.436,0.772,0.730,���쓌,1.9,��
2019/05/14,10:00,0.775,1.125,0.778,1.429,1.050,0.437,0.773,0.730,���k��,1.4,��
2019/05/14,10:10,0.771,1.130,0.775,1.431,1.050,0.437,0.773,0.730,���쓌,1.4,��
2019/05/14,10:20,0.772,1.129,0.772,1.431,1.049,0.436,0.773,0.731,�쓌,2.3,��
2019/05/14,10:30,0.772,1.129,0.773,1.431,1.049,0.434,0.774,0.731,��쓌,3.2,��
2019/05/14,10:40,0.771,1.132,0.775,1.429,1.050,0.439,0.774,0.728,��쓌,3.3,��
2019/05/14,10:50,0.771,1.130,0.776,1.432,1.049,0.437,0.772,0.730,�쓌,3.3,��
2019/05/14,11:00,0.770,1.130,0.778,1.430,1.051,0.438,0.773,0.729,��쓌,4.3,��
2019/05/14,11:10,0.772,1.128,0.775,1.431,1.049,0.437,0.774,0.728,��쓌,5.9,��
2019/05/14,11:20,0.772,1.130,0.779,1.431,1.050,0.437,0.774,0.730,��쓌,6.1,��
2019/05/14,11:30,0.770,1.130,0.778,1.434,1.050,0.439,0.774,0.729,��쓌,5.8,��
2019/05/14,11:40,0.773,1.134,0.779,1.431,1.050,0.436,0.773,0.729,��쓌,5.3,��
2019/05/14,11:50,0.774,1.130,0.778,1.433,1.053,0.438,0.774,0.730,��쓌,6.3,��
2019/05/14,12:00,0.773,1.130,0.777,1.430,1.049,0.438,0.775,0.729,��쓌,9.4,��
2019/05/14,12:10,0.773,1.132,0.780,1.433,1.052,0.438,0.774,0.729,��,10.5,��
2019/05/14,12:20,0.774,1.131,0.778,1.433,1.051,0.440,0.774,0.730,��쓌,10.6,��
2019/05/14,12:30,0.772,1.133,0.778,1.436,1.052,0.439,0.775,0.731,��쓌,12.2,��
2019/05/14,12:40,0.773,1.133,0.779,1.432,1.052,0.440,0.773,0.729,��쓌,11.3,��
2019/05/14,12:50,0.773,1.132,0.780,1.433,1.051,0.439,0.775,0.730,��쓌,11.7,��
2019/05/14,13:00,0.775,1.133,0.780,1.434,1.053,0.440,0.776,0.730,��,10.7,��
2019/05/14,13:10,0.776,1.134,0.777,1.432,1.053,0.439,0.775,0.729,��쓌,12.8,��
2019/05/14,13:20,0.773,1.131,0.779,1.433,1.053,0.439,0.775,0.731,��쓌,13.3,��
2019/05/14,13:30,0.775,1.133,0.781,1.430,1.050,0.441,0.775,0.731,��쓌,12.4,��
2019/05/14,13:40,0.775,1.130,0.778,1.428,1.052,0.440,0.776,0.729,��쓌,12.7,��
2019/05/14,13:50,0.776,1.131,0.778,1.429,1.054,0.439,0.777,0.731,��,13.5,��
2019/05/14,14:00,0.775,1.133,0.781,1.433,1.054,0.442,0.775,0.731,��쓌,14.1,��
2019/05/14,14:10,0.774,1.129,0.779,1.430,1.051,0.439,0.775,0.729,��,11.9,��
2019/05/14,14:20,0.774,1.131,0.779,1.432,1.054,0.440,0.774,0.733,��,9.5,��
2019/05/14,14:30,0.774,1.131,0.780,1.430,1.052,0.441,0.777,0.729,��쓌,11.9,��
2019/05/14,14:40,0.775,1.132,0.777,1.433,1.053,0.440,0.776,0.729,��,11.6,��
2019/05/14,14:50,0.773,1.134,0.780,1.432,1.054,0.441,0.776,0.732,��,9.4,��
2019/05/14,15:00,0.776,1.136,0.780,1.432,1.053,0.440,0.775,0.730,��,11.1,��
2019/05/14,15:10,0.776,1.139,0.779,1.432,1.052,0.442,0.775,0.732,��쓌,10.5,��
2019/05/14,15:20,0.774,1.133,0.778,1.429,1.054,0.441,0.774,0.729,��,10.8,��
2019/05/14,15:30,0.775,1.134,0.778,1.433,1.052,0.440,0.775,0.732,��,11.3,��
2019/05/14,15:40,0.775,1.134,0.778,1.431,1.053,0.441,0.774,0.728,��,11.0,��
2019/05/14,15:50,0.774,1.134,0.777,1.432,1.052,0.442,0.775,0.732,��쓌,10.5,��
2019/05/14,16:00,0.774,1.134,0.778,1.434,1.054,0.441,0.773,0.730,��,10.2,��
2019/05/14,16:10,0.775,1.134,0.779,1.436,1.050,0.441,0.777,0.730,��,9.4,��
2019/05/14,16:20,0.774,1.136,0.779,1.434,1.052,0.440,0.773,0.730,��쓌,9.3,��
2019/05/14,16:30,0.775,1.137,0.780,1.435,1.054,0.441,0.774,0.729,��,10.5,��
2019/05/14,16:40,0.774,1.135,0.780,1.433,1.053,0.440,0.775,0.730,��,10.5,��
2019/05/14,16:50,0.773,1.137,0.780,1.437,1.051,0.440,0.775,0.732,��쓌,10.2,��
2019/05/14,17:00,0.774,1.134,0.779,1.434,1.050,0.442,0.774,0.731,��,9.3,��
2019/05/14,17:10,0.775,1.137,0.779,1.436,1.051,0.441,0.774,0.731,��,9.6,��
2019/05/14,17:20,0.773,1.135,0.780,1.436,1.053,0.439,0.772,0.731,��,8.2,��
2019/05/14,17:30,0.774,1.134,0.779,1.433,1.054,0.441,0.774,0.732,��,8.7,��
2019/05/14,17:40,0.774,1.135,0.783,1.437,1.051,0.441,0.775,0.730,��,9.0,��
2019/05/14,17:50,0.775,1.137,0.782,1.435,1.051,0.442,0.774,0.730,��,8.8,��
2019/05/14,18:00,0.777,1.135,0.782,1.434,1.051,0.440,0.774,0.729,��,7.6,��
2019/05/14,18:10,0.775,1.137,0.783,1.436,1.052,0.443,0.774,0.729,��,7.5,��
2019/05/14,18:20,0.774,1.137,0.782,1.435,1.052,0.442,0.776,0.732,��,6.6,��
2019/05/14,18:30,0.775,1.138,0.782,1.435,1.053,0.441,0.775,0.733,��,5.2,��
2019/05/14,18:40,0.776,1.138,0.784,1.439,1.053,0.439,0.774,0.732,��,4.7,��
2019/05/14,18:50,0.775,1.138,0.783,1.435,1.052,0.443,0.775,0.733,��,5.0,��
2019/05/14,19:00,0.778,1.138,0.783,1.436,1.053,0.442,0.774,0.734,��,5.3,��
2019/05/14,19:10,0.777,1.137,0.785,1.436,1.052,0.442,0.776,0.733,��,6.0,��
2019/05/14,19:20,0.778,1.137,0.783,1.436,1.055,0.443,0.775,0.733,��,6.5,�L
2019/05/14,19:30,0.778,1.138,0.783,1.435,1.053,0.441,0.776,0.734,��,6.8,�L
2019/05/14,19:40,0.776,1.138,0.781,1.435,1.053,0.442,0.774,0.732,��쐼,5.2,�L
2019/05/14,19:50,0.776,1.133,0.783,1.437,1.053,0.441,0.774,0.733,��,4.5,�L
2019/05/14,20:00,0.776,1.134,0.782,1.436,1.053,0.442,0.774,0.733,��,5.5,�L
2019/05/14,20:10,0.777,1.138,0.783,1.436,1.051,0.441,0.773,0.734,���쐼,3.7,�L
2019/05/14,20:20,0.779,1.141,0.783,1.437,1.054,0.442,0.778,0.732,���쐼,2.5,�L
2019/05/14,20:30,0.777,1.139,0.783,1.434,1.053,0.442,0.777,0.733,���쐼,2.2,��
2019/05/14,20:40,0.776,1.138,0.782,1.436,1.055,0.443,0.775,0.733,��,1.7,��
2019/05/14,20:50,0.776,1.136,0.784,1.435,1.055,0.442,0.777,0.733,��,1.5,��
2019/05/14,21:00,0.774,1.136,0.782,1.436,1.053,0.443,0.777,0.732,��,1.2,��
2019/05/14,21:10,0.774,1.139,0.782,1.435,1.053,0.442,0.775,0.732,���k��,2.2,��
2019/05/14,21:20,0.775,1.139,0.781,1.433,1.055,0.443,0.776,0.732,�k��,0.8,�L
2019/05/14,21:30,0.777,1.138,0.780,1.431,1.055,0.443,0.776,0.733,��,1.2,�L
2019/05/14,21:40,0.776,1.137,0.782,1.436,1.055,0.443,0.777,0.733,�쐼,1.1,�L
2019/05/14,21:50,0.778,1.135,0.782,1.433,1.053,0.444,0.775,0.731,-,CALM,�L
2019/05/14,22:00,0.777,1.139,0.782,1.434,1.055,0.443,0.777,0.734,���쓌,1.2,�L
2019/05/14,22:10,0.775,1.137,0.782,1.434,1.055,0.443,0.776,0.735,�k�k��,0.6,�L
2019/05/14,22:20,0.776,1.137,0.784,1.438,1.053,0.443,0.778,0.733,��쓌,0.6,�L
2019/05/14,22:30,0.777,1.137,0.781,1.436,1.056,0.442,0.777,0.732,�쓌,0.9,��
2019/05/14,22:40,0.776,1.137,0.782,1.433,1.054,0.443,0.777,0.731,�쓌,1.1,��
2019/05/14,22:50,0.776,1.132,0.780,1.433,1.055,0.443,0.777,0.733,�쓌,1.4,��
2019/05/14,23:00,0.775,1.135,0.782,1.435,1.053,0.442,0.776,0.731,�쓌,1.2,��
2019/05/14,23:10,0.774,1.135,0.781,1.436,1.053,0.442,0.776,0.732,��쓌,1.7,�L
2019/05/14,23:20,0.775,1.135,0.781,1.432,1.053,0.443,0.777,0.733,��,2.8,�L
2019/05/14,23:30,0.776,1.135,0.781,1.432,1.053,0.442,0.776,0.733,��,3.4,�L
2019/05/14,23:40,0.774,1.134,0.782,1.434,1.053,0.443,0.778,0.733,��,3.4,�L
2019/05/14,23:50,0.776,1.137,0.781,1.434,1.053,0.442,0.777,0.734,��,5.1,��
